Torna al catalogo

IRIDIUM 33 DEB

AttivoPO
NORAD 35929·DEBRIS·🇺🇸 United States

Lanciato Sep 14, 1997 da Baikonur Cosmodrome

Loading…

Prossimi Passaggi (prossime 24 ore)

TLE

AggiornatoSource: Space-Track

Epoca: Sep 14, 2026, 12:40 UTC

1 35929U 97051UN  26257.52793500  .00049136  00000-0  19234-2 0  9997
2 35929  86.3422 179.7792 0015030  79.2047 281.0890 15.25507962919521

Traccia IRIDIUM 33 DEB in tempo reale con AllMySat

Download on the App Store